FREGAT DEB, 45829

Orbit data source: Space-Track

FREGAT DEB, 45829 is space debris in LEO originally from a launch on Mon, 18 Jul 2011 UTC launched from the Tyuratam Missile And Space Complex (TTMTR). Debris objects in space refer to the collection of defunct objects orbiting the Earth. Examples of debris include non-operational satellites, rocket bodies, and fragments generated from explosions, collisions, or faulty payload assembly.

Loading next visibility...
FREGAT DEB details
Identifier
45829, 2011-037BP
Orbit
LEO
Last TLE update11 hours ago
Origin
Flag of CISVVKO VKS (CIS)
ManufacturerLavochkin
MissionSpacecraft
Bus & MotorUnknown
MassUnknown
Launch date (UTC)
2011-07-18 (13 years ago)
Launch vehicleUnknown
Launch site
Tyuratam Missile And Space Complex (TTMTR)
Object type
Payload
Rocket body
Debris
Shape & HBRUnknown
Radar Cross SectionSmall (<0.1 m²)

Expand to show TLE details & history

TLE from 11 hours ago
0 FREGAT DEB
1 45829U 11037BP  24339.93647029  .00054325  00000-0  44458-2 0  9997
2 45829  51.4198 189.1299 1497212 215.7878 133.3020 12.30660972192348
Epoch: 2024-12-04T22:28Z
Definitive object data (Epoch: 2024-12-04T22:28:31.033Z)
Latitude0.00001°
Longitude137.77613°
Altitude2,441.544 km
Speed6.334 km/s
True Right ascension12h 36m 31s
True Declination0° 00' 00"
Sunlit
Object was in daylight at TLE epoch
Visualization TLE readout
Latitude35.65946°
Longitude-78.283°
Altitude1,268.692 km
Speed7.352 km/s
Apparent Right ascension20h 49m 41s
Apparent Declination2° 03' 25"
Sunlit
Object is in daylight
Visualization observer readout
Local Sidereal Time07:03:18
Azimuth323.332° NNW
Elevation-41.48°
Doppler factor1
Orbital elements
Apogee altitude2,733.476 km
Perigee altitude360.376 km
Semi-major axis7,925.063 km
Eccentricity0.1497212
Inclination51.4198°
RAAN189.1299°
Arg. of periapsis215.7878°
True anomaly144.29571°
Mean anomaly133.302°
Eccentric anomaly138.93704°
Mean motion3.07637 °/min
BSTAR0.0044458
Orbital period117.02 mins
Loading maneuver chart data...
Loading historical data...
Loading historical data...
Loading historical data...
Loading historical data...
Loading historical data...
Loading historical data...
Loading historical data...

FREGAT DEB Visibility forecast

Observer location: undefined°, undefined

Span
Click to sort rows by Start time (UTC) header in descending order
Start Az.
Max El. time (UTC)
Max El. Az.
Max El.
End time (UTC)
End Az.
21 mins2024-12-05 14:08:08.155Z158.681° S2024-12-05 14:18:08.155Z116.383° SE23.065°2024-12-05 14:29:08.155Z70.865° E
28 mins2024-12-05 16:07:08.155Z209.72° SW2024-12-05 16:21:08.155Z132.156° SE42.897°2024-12-05 16:35:08.155Z55.758° ENE
27 mins2024-12-05 18:11:08.155Z252.637° W2024-12-05 18:26:08.155Z331.95° NNW42.561°2024-12-05 18:38:08.155Z54.618° ENE
23 mins2024-12-05 20:19:08.155Z286.838° WNW2024-12-05 20:32:08.155Z351.304° N36.999°2024-12-05 20:42:08.155Z69.333° E
18 mins2024-12-05 22:27:08.155Z305.568° NW2024-12-05 22:38:08.155Z18.719° NNE41.76°2024-12-05 22:45:08.155Z103.143° ESE
13 mins2024-12-06 00:33:08.155Z299.212° NW2024-12-06 00:41:08.155Z233.067° WSW36.253°2024-12-06 00:46:08.155Z165.726° S
|